Location: *
(49.5667°N, 1.3667°W)
Time: 18:33:59
(UTC+00:00)

H-2A R/B - Pass Details

Date: 20 September 2019
Orbit: 734 x 836 km, 98.3° (Epoch: 23 October)

Event Time Altitude Azimuth Distance (km) Brightness Sun altitude
Exits shadow 19:42:42 16° 153° (SSE) 1,872 3.6 -15.7°
Maximum altitude 19:46:38 70° 72° (ENE) 803 1.9 -16.3°
Drops below altitude 10° 19:51:42 10° 350° (N) 2,313 4.9 -17.1°
Sets 19:54:03 0° 348° (NNW) 3,259 5.8 -17.4°
